Location: Newark
(49.1000°N, 0.4667°W)
Time: 10:00:23
(UTC+00:00)

BEESAT 3 - Pass Details

Date: 12 July 2020
Orbit: 482 x 522 km, 64.9° (Epoch: 10 August)

Event Time Altitude Azimuth Distance (km) Brightness Sun altitude
Rises 21:29:05 0° 267° (W) 2,648 ? -10.8°
Reaches altitude 10° 21:31:53 10° 288° (WNW) 1,765 ? -11.1°
Maximum altitude 21:34:33 17° 331° (NNW) 1,372 ? -11.3°
Drops below altitude 10° 21:37:14 10° 13° (NNE) 1,769 ? -11.6°
Sets 21:40:02 0° 34° (NE) 2,657 ? -11.9°
